User: anonymous   Login
Location: Bonny Doon Airfield
(37.0704°N, 122.1252°W)
Time: 22:57:44
(UTC-07:00)
Language:

OTV 5 (USA 277) - Orbit

View from above orbital plane
View from above orbital plane
View from above satellite
View from above satellite

Ground track
Ground track

The orbit data is extracted from the following two-line orbital elements,

1 42932U 17052A   18111.90279384 0.00000000  00000-0  00000-0 0    02
2 42932  54.5136  93.3628 0009497 166.6943 193.3657 15.84832559    05
Epoch (UTC): 21 April 2018 21:40:01
Eccentricity: 0.0009497
inclination: 54.5136°
perigee height: 310 km
apogee height: 323 km
right ascension of ascending node: 93.3628°
argument of perigee: 166.6943°
revolutions per day: 15.84832559
mean anomaly at epoch: 193.3657°
orbit number at epoch: 0

The dashed part of the orbit path shows where the satellite is in the earth's shadow,  

DLR